This is the latest recevied weather packets stored in our database for station/object LU8FCJ-5. If no packets are shown the sender has not sent any weather packets the latest 10 day(s).
| Time | Temp. | Humidity | Pressure | Rain* | Wind** | Luminosity | Snow |
|---|---|---|---|---|---|---|---|
| 1777499384 | 16.11° C | 46% | 1012.5 hPa | 0 mm | - | 154 W/m² | - |
| 1777499074 | 16.67° C | 45% | 1012.6 hPa | 0 mm | - | 154 W/m² | - |
| 1777498764 | 17.22° C | 45% | 1012.5 hPa | 0 mm | - | 154 W/m² | - |
| 1777498453 | 17.22° C | 45% | 1012.4 hPa | 0 mm | - | 154 W/m² | - |
| 1777498143 | 17.22° C | 44% | 1012.2 hPa | 0 mm | - | 154 W/m² | - |
| 1777497836 | 18.33° C | 42% | 1012 hPa | 0 mm | - | - | - |
| 1777497523 | 18.33° C | 41% | 1012.3 hPa | 0 mm | - | - | - |
| 1777497213 | 18.89° C | 38% | 1012.1 hPa | 0 mm | - | - | - |
| 1777496903 | 19.44° C | 36% | 1012.1 hPa | 0 mm | - | - | - |
| 1777496592 | 20° C | 35% | 1012 hPa | 0 mm | - | - | - |
| 1777496283 | 20.56° C | 36% | 1012.3 hPa | 0 mm | - | - | - |
| 1777495662 | 21.67° C | 33% | 1012.1 hPa | 0 mm | - | - | - |
| 1777495352 | 21.67° C | 33% | 1011.7 hPa | 0 mm | - | - | - |
| 1777495042 | 22.22° C | 32% | 1012 hPa | 0 mm | - | - | - |
| 1777494732 | 22.22° C | 31% | 1012 hPa | 0 mm | - | - | - |
| 1777494421 | 22.78° C | 29% | 1011.8 hPa | 0 mm | - | - | - |
| 1777494112 | 22.78° C | 30% | 1011.9 hPa | 0 mm | - | - | - |
| 1777493801 | 22.78° C | 29% | 1011.8 hPa | 0 mm | - | - | - |
| 1777493492 | 22.78° C | 29% | 1011.8 hPa | 0 mm | - | - | - |
| 1777493183 | 23.33° C | 28% | 1011.9 hPa | 0 mm | - | - | - |
| 1777492871 | 23.33° C | 29% | 1011.7 hPa | 0 mm | - | - | - |
| 1777492561 | 23.33° C | 28% | 1011.7 hPa | 0 mm | - | - | - |
| 1777492251 | 23.33° C | 28% | 1011.8 hPa | 0 mm | - | - | - |
| 1777491940 | 23.33° C | 28% | 1011.7 hPa | 0 mm | - | - | - |
| 1777491633 | 23.33° C | 29% | 1011.5 hPa | 0 mm | - | - | - |
* Rain latest hour (hover to see other rain measurements)
** Current wind speed in m/s (hover to see current wind gust speed)